Regional Weather Roundup
Issued by NWS

Home | Current Version | Previous Version | Text Only | Print | Product List | Glossary On
Versions: 1 2 3 4 5 6 7 8 9 10 11 12 13 14 15 16 17 18 19 20 21 22 23 24 25 26 27 28 29 30 31 32 33 34 35 36 37 38 39 40 41 42 43 44 45 46 47 48 49 50
712
ASUS43 KDTX 290801
RWRMI
MICHIGAN HOURLY REGIONAL WEATHER ROUNDUP
NATIONAL WEATHER SERVICE DETROIT/PONTIAC MI
400 AM EDT THU JUN 29 2017

NOTE: "FAIR" INDICATES FEW OR NO CLOUDS BELOW 12,000 FEET WITH NO
SIGNIFICANT WEATHER AND/OR OBSTRUCTION TO VISIBILITY.

MIZ047>049-052>055-059>063-066>070-074>076-081>083-290900-
SOUTHEAST LOWER MICHIGAN

CITY           SKY/WX    TMP DP  RH WIND       PRES   REMARKS
ADRIAN         MOCLDY    70  55  59 SW9       29.92R
ALMA           RAIN      64  62  96 SW9G22    29.78F
ANN ARBOR      MOCLDY    68  56  65 S6        29.90R
BAD AXE        RAIN      64  58  80 S13       29.81R
CARO           RAIN      64  59  84 S12       29.80S
DETROIT CITY   CLOUDY    71  56  58 S13G21    29.88F
DETROIT        CLOUDY    72  54  53 SW17      29.90S
FLINT          CLOUDY    70  55  59 SW17G24   29.84R
GROSSE ILE     CLOUDY    70  58  66 S14G20    29.90S
HILLSDALE      LGT RAIN  64  55  72 CALM      29.91F
HOWELL         LGT RAIN  65  57  75 SW14G23   29.89S

CITY           SKY/WX    TMP DP  RH WIND       PRES   REMARKS
JACKSON        LGT RAIN  65  60  84 CALM      29.91F
LAMBERTVILLE   CLOUDY    69  55  59 SW7       29.91S
LANSING        RAIN      65  60  84 S15       29.81F
LAPEER         MOCLDY    70  54  57 SW16G22   29.84R
MASON          LGT RAIN  64  61  91 S5        29.89F
MONROE         CLOUDY    71  54  55 SW9       29.90S
MT. CLEMENS    MOCLDY    70  57  62 S12       29.86F
PONTIAC        CLOUDY    70  55  59 SW14G21   29.86S
PORT HOPE        N/A     64  58  80 VRB7      29.78S
PORT HURON     MOCLDY    68  55  64 S12       29.86F
TRI CITIES     CLOUDY    65  62  90 SW15G23   29.79F
MIDLAND        CLOUDY    64  61  89 SW12G17   29.77F
TROY           MOCLDY    73  51  46 S9G18     29.90S
SAGINAW HB     LGT RAIN  64  57  77 S17       29.79F
$$
MIZ043>046-050>051-056>058-064>065-071>073-077>080-290900-
SOUTHWEST LOWER MICHIGAN

CITY           SKY/WX    TMP DP  RH WIND       PRES   REMARKS
BATTLE CREEK   RAIN      64  63  96 S10       29.89F
BENTON HARBOR  MOCLDY    65  62  90 SE12      29.81F
BIG RAPIDS     CLOUDY    63  60  90 S10G17    29.74S
COLDWATER      CLOUDY    65  62  89 NW3       29.91S
FREMONT        CLOUDY    63  63  99 S10       29.75R
HOLLAND        HVY RAIN  65  63  93 S17G24    29.79F FOG
GRAND RAPIDS   CLOUDY    65  63  93 S18G24    29.80F
IONIA          CLOUDY    64  62  91 S17G23    29.79F
KALAMAZOO      LGT RAIN  65  62  90 SE5       29.87F
LUDINGTON      LGT RAIN  64  63  94 S20G26    29.69F
MARSHALL       LGT RAIN  65  64  98 SW3       29.90S
MOUNT PLEASANT CLOUDY    64  61  91 S8        29.74F
MUSKEGON       CLOUDY    66  64  93 S17G30    29.75F
SOUTH HAVEN    CLOUDY    65  64  97 SE5       29.80F
$$
MIZ016>042-290900-
NORTHERN LOWER MICHIGAN

CITY           SKY/WX    TMP DP  RH WIND       PRES   REMARKS
ALPENA         LGT RAIN  62  61  96 S8        29.75F
BELLAIRE       CLOUDY    63  60  90 S6        29.68F
CADILLAC       LGT RAIN  61  60  96 SW10      29.73F
CHARLEVOIX     CLOUDY    63  63 100 SE6       29.70F
FRANKFORT      CLOUDY    65  60  85 S12G17    29.68R
GAYLORD        CLOUDY    61  57  87 S12       29.72F
GRAYLING       CLOUDY    60  59  94 S5        29.73F
HARBOR SPRINGS CLOUDY    62  62 100 CALM      29.70F
HOUGHTON LAKE  CLOUDY    61  59  93 S8        29.74F
MANISTEE       LGT RAIN  64  62  93 S8        29.69S
OSCODA         LGT RAIN  63  57  82 SW12      29.76S
PELLSTON       CLOUDY    62  59  90 E5        29.70F
ROGERS CITY    DRIZZLE   61  59  92 S8        29.74S
TRAVERSE CITY  LGT RAIN  66  60  81 S9        29.66F
$$
MIZ007>008-015-290900-
EASTERN UPPER MICHIGAN

CITY           SKY/WX    TMP DP  RH WIND       PRES   REMARKS
KINROSS        LGT RAIN  59  58  96 SE8       29.71F
MACKINAC ISLAN CLOUDY    61  61 100 SE9       29.70F
NEWBERRY       CLOUDY    60  59  97 S10G18    29.66F FOG
S. S. MARIE    LGT RAIN  60  58  92 E8        29.71F
MUNISING         N/A     61  61 100 S9        29.60
$$
MIZ004>006-011>014-085-290900-
CENTRAL UPPER MICHIGAN

CITY           SKY/WX    TMP DP  RH WIND       PRES   REMARKS
MANISTIQUE     RAIN      57  54  89 S6        29.65R
ESCANABA       CLOUDY    61  60  97 S6        29.61S
MENOMINEE      MOCLDY    64  61  90 S8        29.61S
SAWYER-GWINN   DRZL/FOG  60  59  98 S9        29.61S VSB 1/2
$$
MIZ001>003-009>011-084-290900-
WESTERN UPPER MICHIGAN

CITY           SKY/WX    TMP DP  RH WIND       PRES   REMARKS
IRON MOUNTAIN  FOG       63  61  93 SE6       29.57F VSB 1/4
HOUGHTON       FOG       56  55  97 E8        29.55F VSB 1/4
COPPER HARBOR    N/A     57  57 100 S8        29.57
IRONWOOD       LGT RAIN  66  64  93 S7        29.52F
$$

ABBREVIATIONS USED IN REMARKS
   TC - TEMPERATURE IN CELSIUS
  WCI - WIND CHILL INDEX
   HX - HEAT INDEX
  VSB - VISIBILITY





USA.gov is the U.S. government's official web portal to all federal, state and local government web resources and services.